Location: Meadowbank Aerodrome
(65.0250°N, 96.0705°W)
Time: 12:11:30
(UTC-06:00)

Cosmos 2221 - Visible Passes

Search period start: 22 January 2017 00:00
Search period end: 01 February 2017 00:00
Orbit: 593 x 618 km, 82.5° (Epoch: 22 January)

Date Brightness Start Highest point End Pass type
(mag) Time Alt. Az. Time Alt. Az. Time Alt. Az.
22 Jan 4.5 05:06:40 10° SSE 05:10:22 28° E 05:14:04 10° NNE visible
22 Jan 2.4 06:43:23 10° SSW 06:47:41 69° WNW 06:52:00 10° NNE visible
22 Jan 3.7 08:22:46 10° W 08:26:04 21° NW 08:29:23 10° N visible
22 Jan 3.2 16:37:30 10° NNW 16:41:45 61° W 16:45:58 10° S visible
22 Jan 5.5 18:16:05 10° NW 18:18:34 15° WNW 18:21:01 10° WSW visible
23 Jan 3.9 05:19:21 10° SSE 05:23:21 38° E 05:27:20 10° NNE visible
23 Jan 2.6 06:56:41 10° SW 07:00:54 51° WNW 07:05:07 10° NNE visible
23 Jan 3.8 16:50:43 10° NNW 16:54:48 44° W 16:58:51 10° SSW visible
23 Jan 5.7 18:30:04 10° NW 18:31:23 11° WNW 18:32:42 10° W visible
24 Jan 5.6 03:57:35 10° ESE 03:59:40 13° ENE 04:01:44 10° NE visible
24 Jan 3.3 05:32:11 10° S 05:36:22 52° E 05:40:34 10° NNE visible
24 Jan 2.9 07:10:06 10° SW 07:14:09 39° WNW 07:18:13 10° N visible
24 Jan 4.4 17:03:58 10° NNW 17:07:48 32° W 17:11:36 10° SSW visible
25 Jan 5.2 04:09:38 10° ESE 04:12:31 18° E 04:15:23 10° NE visible
25 Jan 2.7 05:45:34 13° S 05:49:26 72° ESE 05:53:45 10° NNE visible
25 Jan 3.3 07:23:38 10° WSW 07:27:27 30° NW 07:31:17 10° N visible
25 Jan 5.0 17:17:16 10° NNW 17:20:45 24° W 17:24:13 10° SW visible
26 Jan 4.7 04:22:54 14° SE 04:25:24 23° E 04:28:49 10° NNE visible
26 Jan 2.4 05:59:50 22° SSW 06:02:34 84° WNW 06:06:54 10° NNE visible
26 Jan 3.6 07:37:16 10° WSW 07:40:48 24° NW 07:44:21 10° N visible
26 Jan 5.3 17:30:42 10° NW 17:33:39 18° W 17:36:36 10° SW visible
27 Jan 4.2 04:36:45 24° SE 04:38:21 31° E 04:42:09 10° NNE visible
27 Jan 2.4 06:13:41 29° SW 06:15:45 63° WNW 06:20:01 10° NNE visible
27 Jan 3.9 07:51:01 10° W 07:54:12 20° NW 07:57:23 10° N visible
27 Jan 5.5 17:44:18 10° NW 17:46:31 14° WNW 17:48:42 10° WSW visible
28 Jan 5.6 03:13:46 10° E 03:14:48 11° ENE 03:15:49 10° ENE visible
28 Jan 3.6 04:50:24 36° SE 04:51:21 42° E 04:55:24 10° NNE visible
28 Jan 2.7 06:27:18 30° WSW 06:28:58 47° WNW 06:33:08 10° NNE visible
28 Jan 4.1 08:04:53 10° WNW 08:07:38 16° NW 08:10:23 10° N visible
28 Jan 5.8 17:58:46 10° WNW 17:59:19 10° WNW 17:59:52 10° W visible
29 Jan 5.3 03:27:00 14° E 03:27:36 15° ENE 03:29:57 10° NE visible
29 Jan 3.0 05:03:54 53° SE 05:04:23 57° E 05:08:36 10° NNE visible
29 Jan 3.1 06:40:47 28° W 06:42:14 36° WNW 06:46:13 10° N visible
30 Jan 4.9 03:40:23 19° E 03:40:28 19° E 03:43:31 10° NE visible
30 Jan 2.5 05:17:17 76° SE 05:17:28 79° ESE 05:21:47 10° NNE visible
30 Jan 3.4 06:54:10 23° W 06:55:33 28° NW 06:59:17 10° N visible
31 Jan 4.6 03:53:43 25° ENE 03:53:43 25° ENE 03:56:55 10° NNE visible
31 Jan 2.3 05:30:36 77° WNW 05:30:36 77° WNW 05:34:55 10° NNE visible
31 Jan 3.7 07:07:29 19° WNW 07:08:54 23° NW 07:12:20 10° N visible
31 Jan 5.3 16:58:50 10° NW 17:01:36 17° W 17:04:22 10° WSW visible
